Notices

What's New in latest Release from April 7th, 2021:

- Updated Glossary, including Speed of Maximum Gust, and Total Hourly Precipitation

- Updated national and regional climate services offices contacts and prices information

- Addition of station inventory lists for 1981-2010, 1971-2000, and 1961-1990 Normals.

If you haven't already, please take our survey and provide feedback about our website: https://eccc.sondage-survey.ca/f/LanguageSelection.aspx?s=442ca660-fcf1-47c0-95a9-59707d6fd709

Hourly Data Report for March 28, 2020

MIRAMICHI RCS
NEW BRUNSWICK
Current Station Operator: ECCC - MSC

47°00'34.000" N
65°27'54.000" W
33.00 m
8100989
71744
ACQ

Download Data

Hourly Data (March 2020)
Hourly Data Report for March 28, 2020
TIME
LST
Temp Definition
°C
Dew Point Definition
°C
Rel Hum Definition
%
Precip. Amount Definition
mm

Wind Dir Definition
10's deg

Wind Spd Definition
km/h
Visibility Definition
km
Stn Press Definition
kPa
Hmdx Definition


Wind Chill Definition


Weather Definition


00:00 1.6 -5.0 61 LegendMM 30 19   100.35     LegendNANA
01:00 1.2 -5.5 61 LegendMM 30 16   100.43     LegendNANA
02:00 0.6 -6.2 61 LegendMM 30 20   100.54     LegendNANA
03:00 0.1 -6.9 59 LegendMM 30 16   100.61     LegendNANA
04:00 -0.3 -7.6 58 LegendMM 29 17   100.71   -5 LegendNANA
05:00 -0.9 -8.2 58 LegendMM 27 9   100.78   -4 LegendNANA
06:00 -2.8 -9.1 62 LegendMM 25 5   100.90   -5 LegendNANA
07:00 -1.2 -10.0 51 LegendMM 28 12   101.00   -5 LegendNANA
08:00 0.5 -11.7 40 LegendMM 29 14   101.03     LegendNANA
09:00 2.4 -14.4 28 LegendMM 29 23   101.13     LegendNANA
10:00 3.9 -14.2 25 LegendMM 30 18   101.12     LegendNANA
11:00 5.7 -15.9 19 LegendMM 32 14   101.15     LegendNANA
12:00 7.0 -16.6 17 LegendMM 31 14   101.20     LegendNANA
13:00 7.9 -16.6 16 LegendMM 28 16   101.24     LegendNANA
14:00 8.1 -15.7 17 LegendMM 30 15   101.21     LegendNANA
15:00 8.9 -11.9 22 LegendMM 31 10   101.28     LegendNANA
16:00 9.1 -13.6 19 LegendMM 31 12   101.29     LegendNANA
17:00 9.0 -13.0 20 LegendMM 30 11   101.36     LegendNANA
18:00 8.5 -12.5 21 LegendMM 31 10   101.44     LegendNANA
19:00 6.4 -12.3 25 LegendMM 32 4   101.48     LegendNANA
20:00 2.0 -10.4 39 LegendMM 33 5   101.57     LegendNANA
21:00 -1.0 -8.8 55 LegendMM 25 2   101.68   -2 LegendNANA
22:00 -2.5 -9.0 61 LegendMM 24 4   101.78   -4 LegendNANA
23:00 -3.4 -9.8 62 LegendMM 25 3   101.86   -5 LegendNANA

Notes on Data Quality.

Legend

  • E = Estimated
  • M = Missing
  • NA = Not Available*
  • [empty] = Indicates an unobserved value
Date modified: